Terminal Aerodrome Forecast
Issued by NWS

Home | Current Version | Previous Version | Text Only | Print | Product List | Glossary On
Versions: 1 2 3 4 5 6 7 8 9 10 11 12 13 14 15 16 17 18 19 20 21 22 23 24 25 26 27 28 29 30 31 32 33 34 35 36 37 38 39 40 41 42
000
FTUS45 KLKN 251318 AAA
TAFWMC
TAF AMD
KWMC 251318Z 2513/2612 31011KT P6SM BKN040
     FM251500 32020G35KT P6SM VCSH BKN040
     FM260100 34011KT P6SM SCT060
     FM260400 29006KT P6SM SKC=

USA.gov is the U.S. government's official web portal to all federal, state and local government web resources and services.